Miscellaneous Local Product
Issued by NWS North Platte, NE

Home | Current Version | Previous Version | Text Only | Print | Product List | Glossary On
Versions: 1 2 3 4 5 6 7 8 9 10 11 12 13 14 15 16 17 18 19 20 21 22 23 24 25 26 27 28 29 30 31 32 33 34 35 36 37 38 39 40 41 42 43 44 45 46 47 48 49 50
719
AXUS43 KLBF 280010
MISLBF


WESTERN AND NORTH CENTRAL NEBRASKA HOURLY WEATHER ROUNDUP
NATIONAL WEATHER SERVICE NORTH PLATTE NE
700 PM CDT WED JUL 27 2016

NOTE: "FAIR" INDICATES FEW OR NO CLOUDS BELOW 12,000 FEET WITH NO
SIGNIFICANT WEATHER AND/OR OBSTRUCTIONS TO VISIBILITY.

NOTE: STATIONS NOT REPORTING VARIABLES SUCH AS SKY/WEATHER OR
PRESSURE ARE PROVIDED BY RAWS AND APRS NETWORKS AND ARE NOT UNDER
NATIONAL WEATHER SERVICE QUALITY CONTROL.

...OBSERVATIONS IN AND NEAR THE EASTERN PANHANDLE OF NEBRASKA...

CITY           SKY/WX    TMP DP  RH WIND       PRES   REMARKS
PINE RIDGE     SUNNY     81  61  50 E12       30.09S
CHADRON        SUNNY     83  57  41 NE13      30.07F
ALLIANCE       SUNNY     85  53  33 NE13      30.08F
SIDNEY         CLOUDY    83  59  44 E15       30.12S
$$

...OBSERVATIONS IN NORTHERN NEBRASKA AND FAR SOUTHERN SOUTH DAKOTA...

CITY           SKY/WX    TMP DP  RH WIND       PRES   REMARKS
WINNER         FAIR      79  65  62 N8        30.06R
VALENTINE      LGT RAIN  76  62  62 MISG      30.08R
THEDFORD       MOSUNNY   76  57  51 E12G17    30.11R
AINSWORTH      CLOUDY    69  63  79 CALM      30.08S
O`NEILL        TSTM      65  61  85 NW20G28   30.08R
ORD            SUNNY     79  66  64 NW6       30.02R
BROKEN BOW     PTSUNNY   83  67  58 N5        30.05R THUNDER
VALENTINE NWR    N/A     75  59  58 NE6G17      N/A
BUTTE            N/A     77  67  71 CALM        N/A
HALSEY           N/A     75  58  55 NE10G23     N/A
EWING            N/A     77  70  80 CALM        N/A
$$

...OBSERVATIONS IN SOUTHWEST NEBRASKA AND FAR NORTHEAST COLORADO...

CITY           SKY/WX    TMP DP  RH WIND       PRES   REMARKS
WRAY           FAIR      91  52  25 SE10      30.04F
HOLYOKE        FAIR      86  61  42 E13       30.07F
IMPERIAL       SUNNY     88  58  36 NE9       30.03F
OGALLALA       SUNNY     86  54  32 E8        30.06F
NORTH PLATTE   SUNNY     85  63  47 NE7       30.05S
MCCOOK         SUNNY     88  63  43 E8        30.00F
LEXINGTON      MOSUNNY   82  70  65 SE6       30.03F
STAPLETON        N/A     86  65  49 CALM        N/A
GOTHENBURG       N/A     85  64  49 E3          N/A
CALLAWAY         N/A     86  67  53 NW3         N/A
$$

...OBSERVATIONS IN CENTRAL LINCOLN COUNTY AREA...

CITY           SKY/WX    TMP DP  RH WIND       PRES   REMARKS
N.P. AIRPORT   SUNNY     85  63  47 NE7       30.05S
N.P. DOWNTOWN    N/A     85  64  48 NE5         N/A
N.P. SOUTHEAST   N/A     86  63  46 CALM        N/A
N.P. HILLCREST   N/A     84  63  49 NE3         N/A
$$

...SOME OBSERVATIONS FROM AROUND THE REGION...

CITY           SKY/WX    TMP DP  RH WIND       PRES   REMARKS
DENVER         MOSUNNY   91  44  19 E9        30.11F
LARAMIE        SUNNY     84  22  10 N20       30.26F
CHEYENNE       CLOUDY    79  52  38 SE7       30.20F
SCOTTSBLUFF    SUNNY     85  56  37 E14       30.07F THUNDER
RAPID CITY     SUNNY     79  59  50 NE7       30.10F
BISMARCK       PTSUNNY   74  61  63 E5        30.09R
PIERRE         LGT RAIN  76  63  64 E8        30.04R
SIOUX FALLS    MOSUNNY   79  63  57 N14       29.98S
OMAHA          MOSUNNY   85  70  60 N7        29.92F
GRAND ISLAND   SUNNY     85  64  49 E6        30.00S
KANSAS CITY    MOSUNNY   84  72  67 CALM      29.91F
WICHITA        PTSUNNY   92  68  45 NE8       29.92F HX  96
OKLAHOMA CITY  TSTM      75  69  81 S10       29.94R
DALLAS         CLOUDY    88  71  57 NE3       29.88R HX  94
AMARILLO       SUNNY     87  59  38 S8        30.03S
DODGE CITY     CLOUDY    76  64  66 S6        29.99F
HAYS           CLOUDY    91  64  40 E7        29.95F HX  93
GOODLAND       SUNNY     89  57  33 SE10      30.04F
$$




USA.gov is the U.S. government's official web portal to all federal, state and local government web resources and services.